Location: Kuffner-Sternwarte
(48.2130°N, 16.2960°E)
Time: 14:25:01
(UTC+02:00)

Envisat - Pass Details

Date: 23 September 2024
Orbit: 762 x 764 km, 98.3° (Epoch: 09 October)

Event Time Altitude Azimuth Distance (km) Brightness Sun altitude
Rises 06:02:54 0° 359° (N) 3,238 6.3 -7.5°
Reaches altitude 10° 06:06:23 10° 334° (NNW) 2,306 5.3 -7.0°
Maximum altitude 06:08:44 13° 306° (NW) 2,072 4.8 -6.6°
Drops below altitude 10° 06:11:06 10° 278° (W) 2,300 4.8 -6.2°
Enters shadow 06:12:13 - 268° (W) 2,541 5.0 -6.0°
